owner,sensor,date,latitude,longitude,vertical_datum,direction_of_sea_water_velocity,sea_water_speed,upward_sea_water_velocity,qcFlag 
TABS,ioos:station:wmo:42044:1,2007-04-01T00:00:00Z,26.1914,-97.0507,2.0,59.07200668,16.51874693,-99999.0,'11111222,11111222,99999999' 
TABS,ioos:station:wmo:42044:1,2007-04-01T00:30:00Z,26.1914,-97.0507,2.0,69.95643216,17.79798865,-99999.0,'11111222,11111222,99999999' 
TABS,ioos:station:wmo:42044:1,2007-04-01T01:00:00Z,26.1914,-97.0507,2.0,77.71105735,17.10186247,-99999.0,'11111222,11111222,99999999' 
TABS,ioos:station:wmo:42044:1,2007-04-01T01:30:00Z,26.1914,-97.0507,2.0,84.45035425,19.12966544,-99999.0,'11111222,11111222,99999999' 
TABS,ioos:station:wmo:42044:1,2007-04-01T02:00:00Z,26.1914,-97.0507,2.0,99.72850579,16.9842427,-99999.0,'11111222,11111222,99999999' 
TABS,ioos:station:wmo:42044:1,2007-04-01T02:30:00Z,26.1914,-97.0507,2.0,98.37815466,17.63823687,-99999.0,'11111222,11111222,99999999' 
TABS,ioos:station:wmo:42044:1,2007-04-01T03:00:00Z,26.1914,-97.0507,2.0,95.81746829,17.06790262,-99999.0,'11111222,11111222,99999999' 
TABS,ioos:station:wmo:42044:1,2007-04-01T03:30:00Z,26.1914,-97.0507,2.0,108.5860242,16.7854282,-99999.0,'11111222,11111222,99999999' 
TABS,ioos:station:wmo:42044:1,2007-04-01T04:00:00Z,26.1914,-97.0507,2.0,115.2200803,19.24443036,-99999.0,'11111222,11111222,99999999' 
TABS,ioos:station:wmo:42044:1,2007-04-01T04:30:00Z,26.1914,-97.0507,2.0,110.5668036,18.6165652,-99999.0,'11111222,11111222,99999999' 
TABS,ioos:station:wmo:42044:1,2007-04-01T05:00:00Z,26.1914,-97.0507,2.0,102.0587484,18.90721026,-99999.0,'11111222,11111222,99999999' 
TABS,ioos:station:wmo:42044:1,2007-04-01T05:30:00Z,26.1914,-97.0507,2.0,112.3570496,20.29559804,-99999.0,'11111222,11111222,99999999' 
TABS,ioos:station:wmo:42044:1,2007-04-01T06:00:00Z,26.1914,-97.0507,2.0,115.5891827,19.95756498,-99999.0,'11111222,11111222,99999999' 
TABS,ioos:station:wmo:42044:1,2007-04-01T06:30:00Z,26.1914,-97.0507,2.0,119.4966712,19.76139924,-99999.0,'11111222,11111222,99999999' 
TABS,ioos:station:wmo:42044:1,2007-04-01T07:00:00Z,26.1914,-97.0507,2.0,124.174234,19.68978669,-99999.0,'11111222,11111222,99999999' 
TABS,ioos:station:wmo:42044:1,2007-04-01T07:30:00Z,26.1914,-97.0507,2.0,126.663813,20.58213303,-99999.0,'11111222,11111222,99999999' 
TABS,ioos:station:wmo:42044:1,2007-04-01T08:00:00Z,26.1914,-97.0507,2.0,134.3882207,27.81916606,-99999.0,'11111222,11111222,99999999' 
TABS,ioos:station:wmo:42044:1,2007-04-01T08:30:00Z,26.1914,-97.0507,2.0,150.7320632,27.40890549,-99999.0,'11111222,11111222,99999999' 
TABS,ioos:station:wmo:42044:1,2007-04-01T09:00:00Z,26.1914,-97.0507,2.0,161.4922351,29.92781983,-99999.0,'11111222,11111222,99999999' 
TABS,ioos:station:wmo:42044:1,2007-04-01T09:30:00Z,26.1914,-97.0507,2.0,173.5631067,26.22531601,-99999.0,'11111222,11111222,99999999' 
TABS,ioos:station:wmo:42044:1,2007-04-01T10:00:00Z,26.1914,-97.0507,2.0,173.3668368,29.17528577,-99999.0,'11111222,11111222,99999999' 
TABS,ioos:station:wmo:42044:1,2007-04-01T10:30:00Z,26.1914,-97.0507,2.0,181.73339,24.79134728,-99999.0,'11111222,11111222,99999999' 
TABS,ioos:station:wmo:42044:1,2007-04-01T11:00:00Z,26.1914,-97.0507,2.0,169.4168441,27.82327443,-99999.0,'11111222,11111222,99999999' 
TABS,ioos:station:wmo:42044:1,2007-04-01T11:30:00Z,26.1914,-97.0507,2.0,170.5204046,27.56642342,-99999.0,'11111222,11111222,99999999' 
TABS,ioos:station:wmo:42044:1,2007-04-01T12:00:00Z,26.1914,-97.0507,2.0,161.6660107,25.08322547,-99999.0,'11111222,11111222,99999999' 
TABS,ioos:station:wmo:42044:1,2007-04-01T12:30:00Z,26.1914,-97.0507,2.0,163.8273341,32.92283858,-99999.0,'11111222,11111222,99999999' 
TABS,ioos:station:wmo:42044:1,2007-04-01T13:00:00Z,26.1914,-97.0507,2.0,168.8936449,29.22737244,-99999.0,'11111222,11111222,99999999' 
TABS,ioos:station:wmo:42044:1,2007-04-01T13:30:00Z,26.1914,-97.0507,2.0,162.9530143,26.36848498,-99999.0,'11111222,11111222,99999999' 
TABS,ioos:station:wmo:42044:1,2007-04-01T14:00:00Z,26.1914,-97.0507,2.0,161.863685,29.10599938,-99999.0,'11111222,11111222,99999999' 
TABS,ioos:station:wmo:42044:1,2007-04-01T14:30:00Z,26.1914,-97.0507,2.0,168.6574907,31.21973254,-99999.0,'11111222,11111222,99999999' 
TABS,ioos:station:wmo:42044:1,2007-04-01T15:00:00Z,26.1914,-97.0507,2.0,172.045466,36.42041323,-99999.0,'11111222,11111222,99999999' 
TABS,ioos:station:wmo:42044:1,2007-04-01T15:30:00Z,26.1914,-97.0507,2.0,186.5666972,39.34816514,-99999.0,'11111222,11111222,99999999' 
TABS,ioos:station:wmo:42044:1,2007-04-01T16:00:00Z,26.1914,-97.0507,2.0,194.3377425,38.68496866,-99999.0,'11111222,11111222,99999999' 
TABS,ioos:station:wmo:42044:1,2007-04-01T16:30:00Z,26.1914,-97.0507,2.0,213.8182592,45.76288125,-99999.0,'11111222,11111222,99999999' 
TABS,ioos:station:wmo:42044:1,2007-04-01T17:00:00Z,26.1914,-97.0507,2.0,215.3374152,38.96993328,-99999.0,'11111222,11111222,99999999' 
TABS,ioos:station:wmo:42044:1,2007-04-01T17:30:00Z,26.1914,-97.0507,2.0,210.9387647,43.74414818,-99999.0,'11111222,11111222,99999999' 
TABS,ioos:station:wmo:42044:1,2007-04-01T18:00:00Z,26.1914,-97.0507,2.0,203.193667,48.44550856,-99999.0,'11111222,11111222,99999999' 
TABS,ioos:station:wmo:42044:1,2007-04-01T18:30:00Z,26.1914,-97.0507,2.0,203.3508919,43.39430377,-99999.0,'11111222,11111222,99999999' 
TABS,ioos:station:wmo:42044:1,2007-04-01T19:00:00Z,26.1914,-97.0507,2.0,209.4187969,42.75298352,-99999.0,'11111222,11111222,99999999' 
TABS,ioos:station:wmo:42044:1,2007-04-01T19:30:00Z,26.1914,-97.0507,2.0,201.7911992,42.77677875,-99999.0,'11111222,11111222,99999999' 
TABS,ioos:station:wmo:42044:1,2007-04-01T20:00:00Z,26.1914,-97.0507,2.0,194.583366,47.22141569,-99999.0,'11111222,11111222,99999999' 
TABS,ioos:station:wmo:42044:1,2007-04-01T20:30:00Z,26.1914,-97.0507,2.0,193.4894814,44.49761005,-99999.0,'11111222,11111222,99999999' 
TABS,ioos:station:wmo:42044:1,2007-04-01T21:00:00Z,26.1914,-97.0507,2.0,191.449672,49.7705013,-99999.0,'11111222,11111222,99999999' 
TABS,ioos:station:wmo:42044:1,2007-04-01T21:30:00Z,26.1914,-97.0507,2.0,190.3653474,46.40738088,-99999.0,'11111222,11111222,99999999' 
TABS,ioos:station:wmo:42044:1,2007-04-01T22:00:00Z,26.1914,-97.0507,2.0,193.9439855,42.28614076,-99999.0,'11111222,11111222,99999999' 
TABS,ioos:station:wmo:42044:1,2007-04-01T22:30:00Z,26.1914,-97.0507,2.0,192.377283,46.41894118,-99999.0,'11111222,11111222,99999999' 
TABS,ioos:station:wmo:42044:1,2007-04-01T23:00:00Z,26.1914,-97.0507,2.0,195.5083305,47.38527725,-99999.0,'11111222,11111222,99999999' 
TABS,ioos:station:wmo:42044:1,2007-04-01T23:30:00Z,26.1914,-97.0507,2.0,195.842206,47.40045991,-99999.0,'11111222,11111222,99999999' 
TABS,ioos:station:wmo:42044:1,2007-04-02T00:00:00Z,26.1914,-97.0507,2.0,195.8950207,39.25079617,-99999.0,'11111222,11111222,99999999' 
TABS,ioos:station:wmo:42044:1,2007-04-02T00:30:00Z,26.1914,-97.0507,2.0,196.5059953,43.2211985,-99999.0,'11111222,11111222,99999999' 
TABS,ioos:station:wmo:42044:1,2007-04-02T01:00:00Z,26.1914,-97.0507,2.0,196.3121494,46.10601913,-99999.0,'11111222,11111222,99999999' 
TABS,ioos:station:wmo:42044:1,2007-04-02T01:30:00Z,26.1914,-97.0507,2.0,192.5844754,45.57494158,-99999.0,'11111222,11111222,99999999' 
TABS,ioos:station:wmo:42044:1,2007-04-02T02:00:00Z,26.1914,-97.0507,2.0,197.3189425,46.12107761,-99999.0,'11111222,11111222,99999999' 
TABS,ioos:station:wmo:42044:1,2007-04-02T02:30:00Z,26.1914,-97.0507,2.0,195.99083,44.79329414,-99999.0,'11111222,11111222,99999999' 
TABS,ioos:station:wmo:42044:1,2007-04-02T03:00:00Z,26.1914,-97.0507,2.0,200.346251,45.12551606,-99999.0,'11111222,11111222,99999999' 
TABS,ioos:station:wmo:42044:1,2007-04-02T03:30:00Z,26.1914,-97.0507,2.0,202.1263469,42.53234534,-99999.0,'11111222,11111222,99999999' 
TABS,ioos:station:wmo:42044:1,2007-04-02T04:00:00Z,26.1914,-97.0507,2.0,202.9682546,39.56688641,-99999.0,'11111222,11111222,99999999' 
TABS,ioos:station:wmo:42044:1,2007-04-02T04:30:00Z,26.1914,-97.0507,2.0,200.7252999,41.14248413,-99999.0,'11111222,11111222,99999999' 
TABS,ioos:station:wmo:42044:1,2007-04-02T05:00:00Z,26.1914,-97.0507,2.0,204.1173467,39.3772993,-99999.0,'11111222,11111222,99999999' 
TABS,ioos:station:wmo:42044:1,2007-04-02T05:30:00Z,26.1914,-97.0507,2.0,204.3164016,36.13584508,-99999.0,'11111222,11111222,99999999' 
TABS,ioos:station:wmo:42044:1,2007-04-02T06:00:00Z,26.1914,-97.0507,2.0,208.2773256,33.5202148,-99999.0,'11111222,11111222,99999999' 
TABS,ioos:station:wmo:42044:1,2007-04-02T06:30:00Z,26.1914,-97.0507,2.0,210.4135324,31.44742915,-99999.0,'11111222,11111222,99999999' 
TABS,ioos:station:wmo:42044:1,2007-04-02T07:00:00Z,26.1914,-97.0507,2.0,218.5715944,26.4636751,-99999.0,'11111222,11111222,99999999' 
TABS,ioos:station:wmo:42044:1,2007-04-02T07:30:00Z,26.1914,-97.0507,2.0,207.2985959,23.39566199,-99999.0,'11111222,11111222,99999999' 
TABS,ioos:station:wmo:42044:1,2007-04-02T08:00:00Z,26.1914,-97.0507,2.0,205.1119396,18.52059664,-99999.0,'11111222,11111222,99999999' 
TABS,ioos:station:wmo:42044:1,2007-04-02T08:30:00Z,26.1914,-97.0507,2.0,202.82971,15.10317847,-99999.0,'11111222,11111222,99999999' 
TABS,ioos:station:wmo:42044:1,2007-04-02T09:00:00Z,26.1914,-97.0507,2.0,200.5928062,12.68024053,-99999.0,'11111222,11111222,99999999' 
TABS,ioos:station:wmo:42044:1,2007-04-02T09:30:00Z,26.1914,-97.0507,2.0,188.4911866,13.6799598,-99999.0,'11111222,11111222,99999999' 
TABS,ioos:station:wmo:42044:1,2007-04-02T10:00:00Z,26.1914,-97.0507,2.0,174.8208774,16.72829041,-99999.0,'11111222,11111222,99999999' 
TABS,ioos:station:wmo:42044:1,2007-04-02T10:30:00Z,26.1914,-97.0507,2.0,164.2028034,13.26083331,-99999.0,'11111222,11111222,99999999' 
TABS,ioos:station:wmo:42044:1,2007-04-02T11:00:00Z,26.1914,-97.0507,2.0,135.5246113,16.21463845,-99999.0,'11111222,11111222,99999999' 
TABS,ioos:station:wmo:42044:1,2007-04-02T11:30:00Z,26.1914,-97.0507,2.0,130.9443338,22.09584803,-99999.0,'11111222,11111222,99999999' 
TABS,ioos:station:wmo:42044:1,2007-04-02T12:00:00Z,26.1914,-97.0507,2.0,131.6466878,25.14534152,-99999.0,'11111222,11111222,99999999' 
TABS,ioos:station:wmo:42044:1,2007-04-02T12:30:00Z,26.1914,-97.0507,2.0,131.9930752,28.57817349,-99999.0,'11111222,11111222,99999999' 
TABS,ioos:station:wmo:42044:1,2007-04-02T13:00:00Z,26.1914,-97.0507,2.0,127.7119695,32.3854983,-99999.0,'11111222,11111222,99999999' 
TABS,ioos:station:wmo:42044:1,2007-04-02T13:30:00Z,26.1914,-97.0507,2.0,125.1188246,32.92337316,-99999.0,'11111222,11111222,99999999' 
TABS,ioos:station:wmo:42044:1,2007-04-02T14:00:00Z,26.1914,-97.0507,2.0,120.5636552,39.05632471,-99999.0,'11111222,11111222,99999999' 
TABS,ioos:station:wmo:42044:1,2007-04-02T14:30:00Z,26.1914,-97.0507,2.0,125.2538841,37.09275131,-99999.0,'11111222,11111222,99999999' 
TABS,ioos:station:wmo:42044:1,2007-04-02T15:00:00Z,26.1914,-97.0507,2.0,126.6387205,37.68630653,-99999.0,'11111222,11111222,99999999' 
TABS,ioos:station:wmo:42044:1,2007-04-02T15:30:00Z,26.1914,-97.0507,2.0,128.7927693,45.05937527,-99999.0,'11111222,11111222,99999999' 
TABS,ioos:station:wmo:42044:1,2007-04-02T16:00:00Z,26.1914,-97.0507,2.0,129.7415588,45.90765187,-99999.0,'11111222,11111222,99999999' 
TABS,ioos:station:wmo:42044:1,2007-04-02T16:30:00Z,26.1914,-97.0507,2.0,134.5309216,45.78669785,-99999.0,'11111222,11111222,99999999' 
TABS,ioos:station:wmo:42044:1,2007-04-02T17:00:00Z,26.1914,-97.0507,2.0,134.9063357,43.30327701,-99999.0,'11111222,11111222,99999999' 
TABS,ioos:station:wmo:42044:1,2007-04-02T17:30:00Z,26.1914,-97.0507,2.0,142.0878776,39.36851153,-99999.0,'11111222,11111222,99999999' 
TABS,ioos:station:wmo:42044:1,2007-04-02T18:00:00Z,26.1914,-97.0507,2.0,146.2918581,35.42592977,-99999.0,'11111222,11111222,99999999' 
TABS,ioos:station:wmo:42044:1,2007-04-02T18:30:00Z,26.1914,-97.0507,2.0,153.6744328,33.14776161,-99999.0,'11111222,11111222,99999999' 
TABS,ioos:station:wmo:42044:1,2007-04-02T19:00:00Z,26.1914,-97.0507,2.0,158.1380987,31.74277871,-99999.0,'11111222,11111222,99999999' 
TABS,ioos:station:wmo:42044:1,2007-04-02T19:30:00Z,26.1914,-97.0507,2.0,162.7121239,29.37712375,-99999.0,'11111222,11111222,99999999' 
TABS,ioos:station:wmo:42044:1,2007-04-02T20:00:00Z,26.1914,-97.0507,2.0,166.894751,29.54959221,-99999.0,'11111222,11111222,99999999' 
TABS,ioos:station:wmo:42044:1,2007-04-02T20:30:00Z,26.1914,-97.0507,2.0,165.5390648,28.15188271,-99999.0,'11111222,11111222,99999999' 
TABS,ioos:station:wmo:42044:1,2007-04-02T21:00:00Z,26.1914,-97.0507,2.0,167.7279202,27.33459713,-99999.0,'11111222,11111222,99999999' 
TABS,ioos:station:wmo:42044:1,2007-04-02T21:30:00Z,26.1914,-97.0507,2.0,167.1453119,28.81208427,-99999.0,'11111222,11111222,99999999' 
TABS,ioos:station:wmo:42044:1,2007-04-02T22:00:00Z,26.1914,-97.0507,2.0,166.8454069,30.09981063,-99999.0,'11111222,11111222,99999999' 
TABS,ioos:station:wmo:42044:1,2007-04-02T22:30:00Z,26.1914,-97.0507,2.0,167.3758761,30.70221002,-99999.0,'11111222,11111222,99999999' 
TABS,ioos:station:wmo:42044:1,2007-04-02T23:00:00Z,26.1914,-97.0507,2.0,172.2148224,28.64400112,-99999.0,'11111222,11111222,99999999' 
TABS,ioos:station:wmo:42044:1,2007-04-02T23:30:00Z,26.1914,-97.0507,2.0,172.0003293,30.39577109,-99999.0,'11111222,11111222,99999999' 
TABS,ioos:station:wmo:42044:1,2007-04-03T00:00:00Z,26.1914,-97.0507,2.0,180.1385677,28.90008477,-99999.0,'11111222,11111222,99999999' 
TABS,ioos:station:wmo:42044:1,2007-04-03T00:30:00Z,26.1914,-97.0507,2.0,177.5931569,28.81541601,-99999.0,'11111222,11111222,99999999' 
TABS,ioos:station:wmo:42044:1,2007-04-03T01:00:00Z,26.1914,-97.0507,2.0,177.4187699,30.20063741,-99999.0,'11111222,11111222,99999999' 
TABS,ioos:station:wmo:42044:1,2007-04-03T01:30:00Z,26.1914,-97.0507,2.0,177.1354846,30.01750156,-99999.0,'11111222,11111222,99999999' 
TABS,ioos:station:wmo:42044:1,2007-04-03T02:00:00Z,26.1914,-97.0507,2.0,179.6009864,25.86062644,-99999.0,'11111222,11111222,99999999' 
TABS,ioos:station:wmo:42044:1,2007-04-03T02:30:00Z,26.1914,-97.0507,2.0,180.2806483,26.52031863,-99999.0,'11111222,11111222,99999999' 
TABS,ioos:station:wmo:42044:1,2007-04-03T03:00:00Z,26.1914,-97.0507,2.0,178.08298,29.89672892,-99999.0,'11111222,11111222,99999999' 
TABS,ioos:station:wmo:42044:1,2007-04-03T03:30:00Z,26.1914,-97.0507,2.0,184.988979,28.05630232,-99999.0,'11111222,11111222,99999999' 
TABS,ioos:station:wmo:42044:1,2007-04-03T04:00:00Z,26.1914,-97.0507,2.0,189.9994106,27.87343,-99999.0,'11111222,11111222,99999999' 
TABS,ioos:station:wmo:42044:1,2007-04-03T04:30:00Z,26.1914,-97.0507,2.0,202.2929615,26.17657923,-99999.0,'11111222,11111222,99999999' 
TABS,ioos:station:wmo:42044:1,2007-04-03T05:00:00Z,26.1914,-97.0507,2.0,208.8748951,27.29326657,-99999.0,'11111222,11111222,99999999' 
TABS,ioos:station:wmo:42044:1,2007-04-03T05:30:00Z,26.1914,-97.0507,2.0,255.3825771,25.12313078,-99999.0,'11111222,11111222,99999999' 
TABS,ioos:station:wmo:42044:1,2007-04-03T06:00:00Z,26.1914,-97.0507,2.0,256.9513983,26.44274002,-99999.0,'11111222,11111222,99999999' 
TABS,ioos:station:wmo:42044:1,2007-04-03T06:30:00Z,26.1914,-97.0507,2.0,254.4280953,26.52351598,-99999.0,'11111222,11111222,99999999' 
TABS,ioos:station:wmo:42044:1,2007-04-03T07:00:00Z,26.1914,-97.0507,2.0,256.1603009,23.28598291,-99999.0,'11111222,11111222,99999999' 
TABS,ioos:station:wmo:42044:1,2007-04-03T07:30:00Z,26.1914,-97.0507,2.0,254.3058735,23.14273104,-99999.0,'11111222,11111222,99999999' 
TABS,ioos:station:wmo:42044:1,2007-04-03T08:00:00Z,26.1914,-97.0507,2.0,256.1802719,21.14198193,-99999.0,'11111222,11111222,99999999' 
TABS,ioos:station:wmo:42044:1,2007-04-03T08:30:00Z,26.1914,-97.0507,2.0,252.4508533,19.8330154,-99999.0,'11111222,11111222,99999999' 
TABS,ioos:station:wmo:42044:1,2007-04-03T09:00:00Z,26.1914,-97.0507,2.0,258.4502074,17.83103474,-99999.0,'11111222,11111222,99999999' 
TABS,ioos:station:wmo:42044:1,2007-04-03T09:30:00Z,26.1914,-97.0507,2.0,246.1085425,17.92595046,-99999.0,'11111222,11111222,99999999' 
TABS,ioos:station:wmo:42044:1,2007-04-03T10:00:00Z,26.1914,-97.0507,2.0,257.5876164,12.2359879,-99999.0,'11111222,11111222,99999999' 
TABS,ioos:station:wmo:42044:1,2007-04-03T10:30:00Z,26.1914,-97.0507,2.0,264.091752,11.56140562,-99999.0,'11111222,11111222,99999999' 
TABS,ioos:station:wmo:42044:1,2007-04-03T11:00:00Z,26.1914,-97.0507,2.0,253.4215677,11.32057419,-99999.0,'11111222,11111222,99999999' 
TABS,ioos:station:wmo:42044:1,2007-04-03T11:30:00Z,26.1914,-97.0507,2.0,246.3666135,9.005254022,-99999.0,'11133222,11111222,99999999' 
TABS,ioos:station:wmo:42044:1,2007-04-03T12:00:00Z,26.1914,-97.0507,2.0,260.2501651,8.857928652,-99999.0,'11133222,11111222,99999999' 
TABS,ioos:station:wmo:42044:1,2007-04-03T12:30:00Z,26.1914,-97.0507,2.0,250.3022578,5.310753242,-99999.0,'11133222,11111222,99999999' 
TABS,ioos:station:wmo:42044:1,2007-04-03T13:00:00Z,26.1914,-97.0507,2.0,234.8774975,2.885342267,-99999.0,'11133222,11111222,99999999' 
TABS,ioos:station:wmo:42044:1,2007-04-03T13:30:00Z,26.1914,-97.0507,2.0,254.420592,2.792597357,-99999.0,'11133222,11111222,99999999' 
TABS,ioos:station:wmo:42044:1,2007-04-03T14:00:00Z,26.1914,-97.0507,2.0,270.2452726,2.340021367,-99999.0,'11133222,11111222,99999999' 
TABS,ioos:station:wmo:42044:1,2007-04-03T14:30:00Z,26.1914,-97.0507,2.0,331.6413133,2.000025,-99999.0,'11133222,11111222,99999999' 
TABS,ioos:station:wmo:42044:1,2007-04-03T15:00:00Z,26.1914,-97.0507,2.0,48.40654102,1.190042016,-99999.0,'11133222,11111222,99999999' 
TABS,ioos:station:wmo:42044:1,2007-04-03T15:30:00Z,26.1914,-97.0507,2.0,355.0390663,2.890830331,-99999.0,'11133222,11111222,99999999' 
TABS,ioos:station:wmo:42044:1,2007-04-03T16:00:00Z,26.1914,-97.0507,2.0,2.184155579,2.361715478,-99999.0,'11133222,11111222,99999999' 
TABS,ioos:station:wmo:42044:1,2007-04-03T17:00:00Z,26.1914,-97.0507,2.0,20.45772774,6.809464002,-99999.0,'11133222,11111222,99999999' 
TABS,ioos:station:wmo:42044:1,2007-04-03T17:30:00Z,26.1914,-97.0507,2.0,39.64115133,8.025384726,-99999.0,'11133222,11111222,99999999' 
TABS,ioos:station:wmo:42044:1,2007-04-03T18:00:00Z,26.1914,-97.0507,2.0,43.48961674,10.4617446,-99999.0,'11111222,11111222,99999999' 
TABS,ioos:station:wmo:42044:1,2007-04-03T18:30:00Z,26.1914,-97.0507,2.0,31.38736467,10.9058929,-99999.0,'11111222,11111222,99999999' 
TABS,ioos:station:wmo:42044:1,2007-04-03T19:00:00Z,26.1914,-97.0507,2.0,30.81028732,10.87476437,-99999.0,'11111222,11111222,99999999' 
TABS,ioos:station:wmo:42044:1,2007-04-03T19:30:00Z,26.1914,-97.0507,2.0,34.36352731,13.21664481,-99999.0,'11111222,11111222,99999999' 
TABS,ioos:station:wmo:42044:1,2007-04-03T20:00:00Z,26.1914,-97.0507,2.0,39.09585845,14.77915086,-99999.0,'11111222,11111222,99999999' 
TABS,ioos:station:wmo:42044:1,2007-04-03T21:00:00Z,26.1914,-97.0507,2.0,68.07405585,15.37189643,-99999.0,'11111222,11111222,99999999' 
TABS,ioos:station:wmo:42044:1,2007-04-03T21:30:00Z,26.1914,-97.0507,2.0,79.4010307,15.33157852,-99999.0,'11111222,11111222,99999999' 
TABS,ioos:station:wmo:42044:1,2007-04-03T22:00:00Z,26.1914,-97.0507,2.0,81.36921839,13.59393983,-99999.0,'11111222,11111222,99999999' 
TABS,ioos:station:wmo:42044:1,2007-04-03T22:30:00Z,26.1914,-97.0507,2.0,78.47970699,11.21595738,-99999.0,'11111222,11111222,99999999' 
TABS,ioos:station:wmo:42044:1,2007-04-03T23:00:00Z,26.1914,-97.0507,2.0,90.8550954,12.06134321,-99999.0,'11111222,11111222,99999999' 
TABS,ioos:station:wmo:42044:1,2007-04-03T23:30:00Z,26.1914,-97.0507,2.0,106.5631651,12.10216923,-99999.0,'11111222,11111222,99999999' 
TABS,ioos:station:wmo:42044:1,2007-04-04T00:00:00Z,26.1914,-97.0507,2.0,95.29958915,13.31692532,-99999.0,'11111222,11111222,99999999' 
TABS,ioos:station:wmo:42044:1,2007-04-04T00:30:00Z,26.1914,-97.0507,2.0,102.2501956,16.73095933,-99999.0,'11111222,11111222,99999999' 
TABS,ioos:station:wmo:42044:1,2007-04-04T01:00:00Z,26.1914,-97.0507,2.0,91.82303067,17.28875068,-99999.0,'11111222,11111222,99999999' 
TABS,ioos:station:wmo:42044:1,2007-04-04T01:30:00Z,26.1914,-97.0507,2.0,101.6175237,21.55151271,-99999.0,'11111222,11111222,99999999' 
TABS,ioos:station:wmo:42044:1,2007-04-04T02:00:00Z,26.1914,-97.0507,2.0,108.5537762,21.33909558,-99999.0,'11111222,11111222,99999999' 
TABS,ioos:station:wmo:42044:1,2007-04-04T02:30:00Z,26.1914,-97.0507,2.0,112.5975284,19.77846303,-99999.0,'11111222,11111222,99999999' 
TABS,ioos:station:wmo:42044:1,2007-04-04T03:00:00Z,26.1914,-97.0507,2.0,121.3795764,17.95637491,-99999.0,'11111222,11111222,99999999' 
TABS,ioos:station:wmo:42044:1,2007-04-04T03:30:00Z,26.1914,-97.0507,2.0,129.6307375,18.89192949,-99999.0,'11111222,11111222,99999999' 
TABS,ioos:station:wmo:42044:1,2007-04-04T04:00:00Z,26.1914,-97.0507,2.0,130.7133555,15.51489607,-99999.0,'11111222,11111222,99999999' 
TABS,ioos:station:wmo:42044:1,2007-04-04T04:30:00Z,26.1914,-97.0507,2.0,131.4707127,16.08182204,-99999.0,'11111222,11111222,99999999' 
TABS,ioos:station:wmo:42044:1,2007-04-04T05:00:00Z,26.1914,-97.0507,2.0,128.5374845,16.83713158,-99999.0,'11111222,11111222,99999999' 
TABS,ioos:station:wmo:42044:1,2007-04-04T05:30:00Z,26.1914,-97.0507,2.0,145.1899245,15.46799599,-99999.0,'11111222,11111222,99999999' 
TABS,ioos:station:wmo:42044:1,2007-04-04T06:00:00Z,26.1914,-97.0507,2.0,156.2424818,13.32954988,-99999.0,'11111222,11111222,99999999' 
TABS,ioos:station:wmo:42044:1,2007-04-04T06:30:00Z,26.1914,-97.0507,2.0,151.4479074,13.28575929,-99999.0,'11111222,11111222,99999999' 
TABS,ioos:station:wmo:42044:1,2007-04-04T07:00:00Z,26.1914,-97.0507,2.0,152.6297624,9.548952822,-99999.0,'11133222,11111222,99999999' 
TABS,ioos:station:wmo:42044:1,2007-04-04T07:30:00Z,26.1914,-97.0507,2.0,149.3093115,10.07051141,-99999.0,'11111222,11111222,99999999' 
TABS,ioos:station:wmo:42044:1,2007-04-04T08:00:00Z,26.1914,-97.0507,2.0,144.9082554,15.08126321,-99999.0,'11111222,11111222,99999999' 
TABS,ioos:station:wmo:42044:1,2007-04-04T08:30:00Z,26.1914,-97.0507,2.0,155.8840063,9.104641673,-99999.0,'11133222,11111222,99999999' 
TABS,ioos:station:wmo:42044:1,2007-04-04T09:00:00Z,26.1914,-97.0507,2.0,150.1202224,11.60224116,-99999.0,'11111222,11111222,99999999' 
TABS,ioos:station:wmo:42044:1,2007-04-04T09:30:00Z,26.1914,-97.0507,2.0,151.1679189,14.24595732,-99999.0,'11111222,11111222,99999999' 
TABS,ioos:station:wmo:42044:1,2007-04-04T10:00:00Z,26.1914,-97.0507,2.0,150.83693,14.89858047,-99999.0,'11111222,11111222,99999999' 
TABS,ioos:station:wmo:42044:1,2007-04-04T10:30:00Z,26.1914,-97.0507,2.0,151.3211578,12.7318891,-99999.0,'11111222,11111222,99999999' 
TABS,ioos:station:wmo:42044:1,2007-04-04T11:00:00Z,26.1914,-97.0507,2.0,142.9428036,17.14209147,-99999.0,'11111222,11111222,99999999' 
TABS,ioos:station:wmo:42044:1,2007-04-04T11:30:00Z,26.1914,-97.0507,2.0,167.1259994,13.50958919,-99999.0,'11111222,11111222,99999999' 
TABS,ioos:station:wmo:42044:1,2007-04-04T12:00:00Z,26.1914,-97.0507,2.0,154.9118953,12.6648253,-99999.0,'11111222,11111222,99999999' 
TABS,ioos:station:wmo:42044:1,2007-04-04T12:30:00Z,26.1914,-97.0507,2.0,161.5648838,13.09182951,-99999.0,'11111222,11111222,99999999' 
TABS,ioos:station:wmo:42044:1,2007-04-04T13:00:00Z,26.1914,-97.0507,2.0,155.8128995,10.88560977,-99999.0,'11111222,11111222,99999999' 
TABS,ioos:station:wmo:42044:1,2007-04-04T13:30:00Z,26.1914,-97.0507,2.0,152.8555444,9.731865186,-99999.0,'11133222,11111222,99999999' 
TABS,ioos:station:wmo:42044:1,2007-04-04T14:00:00Z,26.1914,-97.0507,2.0,156.5037879,9.104910763,-99999.0,'11133222,11111222,99999999' 
TABS,ioos:station:wmo:42044:1,2007-04-04T14:30:00Z,26.1914,-97.0507,2.0,164.979661,7.485753135,-99999.0,'11133222,11111222,99999999' 
TABS,ioos:station:wmo:42044:1,2007-04-04T15:00:00Z,26.1914,-97.0507,2.0,154.3720689,10.93583559,-99999.0,'11111222,11111222,99999999' 
TABS,ioos:station:wmo:42044:1,2007-04-04T15:30:00Z,26.1914,-97.0507,2.0,162.1809423,8.235047055,-99999.0,'11133222,11111222,99999999' 
TABS,ioos:station:wmo:42044:1,2007-04-04T16:00:00Z,26.1914,-97.0507,2.0,159.8194745,10.17460564,-99999.0,'11111222,11111222,99999999' 
TABS,ioos:station:wmo:42044:1,2007-04-04T16:30:00Z,26.1914,-97.0507,2.0,150.6445142,12.9532467,-99999.0,'11111222,11111222,99999999' 
TABS,ioos:station:wmo:42044:1,2007-04-04T17:00:00Z,26.1914,-97.0507,2.0,160.8572649,14.8511885,-99999.0,'11111222,11111222,99999999' 